#datetime,building,power
2023-12-18T00:00:00,axn,27.18
2023-12-18T00:01:00,axn,27.06
2023-12-18T00:02:00,axn,27.20
2023-12-18T00:03:00,axn,26.86
2023-12-18T00:04:00,axn,26.94
2023-12-18T00:05:00,axn,26.73
2023-12-18T00:06:00,axn,26.61
2023-12-18T00:07:00,axn,26.99
2023-12-18T00:08:00,axn,26.60
2023-12-18T00:09:00,axn,26.87
2023-12-18T00:10:00,axn,26.50
2023-12-18T00:11:00,axn,26.46
2023-12-18T00:12:00,axn,26.22
2023-12-18T00:13:00,axn,26.52
2023-12-18T00:14:00,axn,27.09
2023-12-18T00:15:00,axn,26.45
2023-12-18T00:16:00,axn,26.47
2023-12-18T00:17:00,axn,26.35
2023-12-18T00:18:00,axn,26.55
2023-12-18T00:19:00,axn,26.60
2023-12-18T00:20:00,axn,26.35
2023-12-18T00:21:00,axn,26.38
2023-12-18T00:22:00,axn,26.33
2023-12-18T00:23:00,axn,26.41
2023-12-18T00:24:00,axn,26.48
2023-12-18T00:25:00,axn,26.29
2023-12-18T00:26:00,axn,26.62
2023-12-18T00:27:00,axn,27.32
2023-12-18T00:28:00,axn,27.28
2023-12-18T00:29:00,axn,26.48
2023-12-18T00:30:00,axn,26.46
2023-12-18T00:31:00,axn,26.50
2023-12-18T00:32:00,axn,27.15
2023-12-18T00:33:00,axn,26.68
2023-12-18T00:34:00,axn,27.01
2023-12-18T00:35:00,axn,26.56
2023-12-18T00:36:00,axn,26.65
2023-12-18T00:37:00,axn,26.69
2023-12-18T00:38:00,axn,26.82
2023-12-18T00:39:00,axn,28.90
2023-12-18T00:40:00,axn,26.78
2023-12-18T00:41:00,axn,26.83
2023-12-18T00:42:00,axn,26.86
2023-12-18T00:43:00,axn,26.90
2023-12-18T00:44:00,axn,27.23
2023-12-18T00:45:00,axn,26.80
2023-12-18T00:46:00,axn,26.72
2023-12-18T00:47:00,axn,26.82
2023-12-18T00:48:00,axn,26.88
2023-12-18T00:49:00,axn,29.88
2023-12-18T00:50:00,axn,30.03
2023-12-18T00:51:00,axn,27.16
2023-12-18T00:52:00,axn,26.79
2023-12-18T00:53:00,axn,27.39
2023-12-18T00:54:00,axn,27.11
2023-12-18T00:55:00,axn,26.74
2023-12-18T00:56:00,axn,26.76
2023-12-18T00:57:00,axn,26.71
2023-12-18T00:58:00,axn,26.75
2023-12-18T00:59:00,axn,26.72
2023-12-18T01:00:00,axn,26.64
2023-12-18T01:01:00,axn,26.69
2023-12-18T01:02:00,axn,26.51
2023-12-18T01:03:00,axn,26.74
2023-12-18T01:04:00,axn,26.76
2023-12-18T01:05:00,axn,26.75
2023-12-18T01:06:00,axn,26.77
2023-12-18T01:07:00,axn,26.73
2023-12-18T01:08:00,axn,26.57
2023-12-18T01:09:00,axn,26.55
2023-12-18T01:10:00,axn,26.50
2023-12-18T01:11:00,axn,26.49
2023-12-18T01:12:00,axn,26.51
2023-12-18T01:13:00,axn,26.56
2023-12-18T01:14:00,axn,26.58
2023-12-18T01:15:00,axn,26.53
2023-12-18T01:16:00,axn,26.64
2023-12-18T01:17:00,axn,26.57
2023-12-18T01:18:00,axn,26.92
2023-12-18T01:19:00,axn,27.52
2023-12-18T01:20:00,axn,27.93
2023-12-18T01:21:00,axn,26.85
2023-12-18T01:22:00,axn,26.87
2023-12-18T01:23:00,axn,26.78
2023-12-18T01:24:00,axn,32.81
2023-12-18T01:25:00,axn,32.74
2023-12-18T01:26:00,axn,32.64
2023-12-18T01:27:00,axn,27.06
2023-12-18T01:28:00,axn,26.70
2023-12-18T01:29:00,axn,26.73
2023-12-18T01:30:00,axn,26.77
2023-12-18T01:31:00,axn,26.75
2023-12-18T01:32:00,axn,26.68
2023-12-18T01:33:00,axn,26.87
2023-12-18T01:34:00,axn,26.84
2023-12-18T01:35:00,axn,26.51
2023-12-18T01:36:00,axn,26.47
2023-12-18T01:37:00,axn,26.53
2023-12-18T01:38:00,axn,26.62
2023-12-18T01:39:00,axn,26.59
2023-12-18T01:40:00,axn,26.73
2023-12-18T01:41:00,axn,26.75
2023-12-18T01:42:00,axn,26.49
2023-12-18T01:43:00,axn,26.37
2023-12-18T01:44:00,axn,26.40
2023-12-18T01:45:00,axn,26.57
2023-12-18T01:46:00,axn,26.70
2023-12-18T01:47:00,axn,26.67
2023-12-18T01:48:00,axn,26.05
2023-12-18T01:49:00,axn,26.10
2023-12-18T01:50:00,axn,25.54
2023-12-18T01:51:00,axn,25.55
2023-12-18T01:52:00,axn,25.58
2023-12-18T01:53:00,axn,25.64
2023-12-18T01:54:00,axn,25.62
2023-12-18T01:55:00,axn,25.43
2023-12-18T01:56:00,axn,25.55
2023-12-18T01:57:00,axn,25.56
2023-12-18T01:58:00,axn,25.67
2023-12-18T01:59:00,axn,25.61
2023-12-18T02:00:00,axn,25.74
2023-12-18T02:01:00,axn,26.25
2023-12-18T02:02:00,axn,26.03
2023-12-18T02:03:00,axn,25.58
2023-12-18T02:04:00,axn,25.69
2023-12-18T02:05:00,axn,25.69
2023-12-18T02:06:00,axn,26.01
2023-12-18T02:07:00,axn,26.14
2023-12-18T02:08:00,axn,25.91
2023-12-18T02:09:00,axn,25.69
2023-12-18T02:10:00,axn,25.61
2023-12-18T02:11:00,axn,25.49
2023-12-18T02:12:00,axn,25.57
2023-12-18T02:13:00,axn,25.84
2023-12-18T02:14:00,axn,25.52
2023-12-18T02:15:00,axn,25.46
2023-12-18T02:16:00,axn,25.39
2023-12-18T02:17:00,axn,25.33
2023-12-18T02:18:00,axn,26.05
2023-12-18T02:19:00,axn,26.00
2023-12-18T02:20:00,axn,25.51
2023-12-18T02:21:00,axn,25.57
2023-12-18T02:22:00,axn,25.58
2023-12-18T02:23:00,axn,25.60
2023-12-18T02:24:00,axn,26.02
2023-12-18T02:25:00,axn,25.83
2023-12-18T02:26:00,axn,25.53
2023-12-18T02:27:00,axn,40.33
2023-12-18T02:28:00,axn,39.96
2023-12-18T02:29:00,axn,39.97
2023-12-18T02:30:00,axn,39.91
2023-12-18T02:31:00,axn,39.85
2023-12-18T02:32:00,axn,39.79
2023-12-18T02:33:00,axn,25.30
2023-12-18T02:34:00,axn,25.27
2023-12-18T02:35:00,axn,25.50
2023-12-18T02:36:00,axn,26.06
2023-12-18T02:37:00,axn,25.48
2023-12-18T02:38:00,axn,25.48
2023-12-18T02:39:00,axn,25.43
2023-12-18T02:40:00,axn,25.54
2023-12-18T02:41:00,axn,25.50
2023-12-18T02:42:00,axn,25.55
2023-12-18T02:43:00,axn,25.51
2023-12-18T02:44:00,axn,25.69
2023-12-18T02:45:00,axn,25.79
2023-12-18T02:46:00,axn,25.43
2023-12-18T02:47:00,axn,25.23
2023-12-18T02:48:00,axn,25.52
2023-12-18T02:49:00,axn,25.35
2023-12-18T02:50:00,axn,25.31
2023-12-18T02:51:00,axn,25.61
2023-12-18T02:52:00,axn,25.77
2023-12-18T02:53:00,axn,25.34
2023-12-18T02:54:00,axn,25.34
2023-12-18T02:55:00,axn,25.63
2023-12-18T02:56:00,axn,25.42
2023-12-18T02:57:00,axn,25.50
2023-12-18T02:58:00,axn,25.76
2023-12-18T02:59:00,axn,25.38
2023-12-18T03:00:00,axn,36.44
2023-12-18T03:01:00,axn,36.04
2023-12-18T03:02:00,axn,35.84
2023-12-18T03:03:00,axn,35.74
2023-12-18T03:04:00,axn,35.75
2023-12-18T03:05:00,axn,25.51
2023-12-18T03:06:00,axn,25.58
2023-12-18T03:07:00,axn,26.05
2023-12-18T03:08:00,axn,25.57
2023-12-18T03:09:00,axn,25.44
2023-12-18T03:10:00,axn,25.50
2023-12-18T03:11:00,axn,25.69
2023-12-18T03:12:00,axn,25.98
2023-12-18T03:13:00,axn,25.89
2023-12-18T03:14:00,axn,25.70
2023-12-18T03:15:00,axn,26.03
2023-12-18T03:16:00,axn,26.13
2023-12-18T03:17:00,axn,25.68
2023-12-18T03:18:00,axn,25.61
2023-12-18T03:19:00,axn,26.37
2023-12-18T03:20:00,axn,26.35
2023-12-18T03:21:00,axn,25.77
2023-12-18T03:22:00,axn,26.02
2023-12-18T03:23:00,axn,25.86
2023-12-18T03:24:00,axn,25.78
2023-12-18T03:25:00,axn,25.81
2023-12-18T03:26:00,axn,25.77
2023-12-18T03:27:00,axn,25.92
2023-12-18T03:28:00,axn,25.76
2023-12-18T03:29:00,axn,25.78
2023-12-18T03:30:00,axn,25.97
2023-12-18T03:31:00,axn,25.86
2023-12-18T03:32:00,axn,25.61
2023-12-18T03:33:00,axn,26.01
2023-12-18T03:34:00,axn,25.59
2023-12-18T03:35:00,axn,26.24
2023-12-18T03:36:00,axn,25.58
2023-12-18T03:37:00,axn,25.54
2023-12-18T03:38:00,axn,25.90
2023-12-18T03:39:00,axn,25.87
2023-12-18T03:40:00,axn,25.60
2023-12-18T03:41:00,axn,25.99
2023-12-18T03:42:00,axn,25.63
2023-12-18T03:43:00,axn,28.66
2023-12-18T03:44:00,axn,25.64
2023-12-18T03:45:00,axn,26.04
2023-12-18T03:46:00,axn,25.90
2023-12-18T03:47:00,axn,25.51
2023-12-18T03:48:00,axn,25.45
2023-12-18T03:49:00,axn,25.25
2023-12-18T03:50:00,axn,25.21
2023-12-18T03:51:00,axn,25.33
2023-12-18T03:52:00,axn,25.44
2023-12-18T03:53:00,axn,25.90
2023-12-18T03:54:00,axn,25.43
2023-12-18T03:55:00,axn,25.35
2023-12-18T03:56:00,axn,25.29
2023-12-18T03:57:00,axn,25.19
2023-12-18T03:58:00,axn,25.32
2023-12-18T03:59:00,axn,25.47
2023-12-18T04:00:00,axn,25.18
2023-12-18T04:01:00,axn,25.27
2023-12-18T04:02:00,axn,25.03
2023-12-18T04:03:00,axn,25.02
2023-12-18T04:04:00,axn,24.85
2023-12-18T04:05:00,axn,24.74
2023-12-18T04:06:00,axn,25.14
2023-12-18T04:07:00,axn,25.53
2023-12-18T04:08:00,axn,25.33
2023-12-18T04:09:00,axn,24.85
2023-12-18T04:10:00,axn,24.98
2023-12-18T04:11:00,axn,25.10
2023-12-18T04:12:00,axn,24.86
2023-12-18T04:13:00,axn,24.80
2023-12-18T04:14:00,axn,24.83
2023-12-18T04:15:00,axn,25.08
2023-12-18T04:16:00,axn,24.89
2023-12-18T04:17:00,axn,24.87
2023-12-18T04:18:00,axn,24.85
2023-12-18T04:19:00,axn,25.00
2023-12-18T04:20:00,axn,25.71
2023-12-18T04:21:00,axn,25.53
2023-12-18T04:22:00,axn,26.22
2023-12-18T04:23:00,axn,26.19
2023-12-18T04:24:00,axn,26.07
2023-12-18T04:25:00,axn,25.16
2023-12-18T04:26:00,axn,25.19
2023-12-18T04:27:00,axn,25.14
2023-12-18T04:28:00,axn,25.14
2023-12-18T04:29:00,axn,25.16
2023-12-18T04:30:00,axn,25.28
2023-12-18T04:31:00,axn,25.34
2023-12-18T04:32:00,axn,25.68
2023-12-18T04:33:00,axn,25.47
2023-12-18T04:34:00,axn,25.37
2023-12-18T04:35:00,axn,25.35
2023-12-18T04:36:00,axn,25.30
2023-12-18T04:37:00,axn,25.98
2023-12-18T04:38:00,axn,26.45
2023-12-18T04:39:00,axn,26.24
2023-12-18T04:40:00,axn,26.19
2023-12-18T04:41:00,axn,25.79
2023-12-18T04:42:00,axn,25.71
2023-12-18T04:43:00,axn,25.55
2023-12-18T04:44:00,axn,25.50
2023-12-18T04:45:00,axn,25.32
2023-12-18T04:46:00,axn,24.57
2023-12-18T04:47:00,axn,24.60
2023-12-18T04:48:00,axn,24.61
2023-12-18T04:49:00,axn,24.51
2023-12-18T04:50:00,axn,24.48
2023-12-18T04:51:00,axn,24.51
2023-12-18T04:52:00,axn,24.44
2023-12-18T04:53:00,axn,24.55
2023-12-18T04:54:00,axn,24.51
2023-12-18T04:55:00,axn,25.31
2023-12-18T04:56:00,axn,25.81
2023-12-18T04:57:00,axn,25.32
2023-12-18T04:58:00,axn,25.34
2023-12-18T04:59:00,axn,25.62
2023-12-18T05:00:00,axn,25.26
2023-12-18T05:01:00,axn,29.09
2023-12-18T05:02:00,axn,29.77
2023-12-18T05:03:00,axn,31.97
2023-12-18T05:04:00,axn,32.70
2023-12-18T05:05:00,axn,32.18
2023-12-18T05:06:00,axn,31.91
2023-12-18T05:07:00,axn,32.10
2023-12-18T05:08:00,axn,31.49
2023-12-18T05:09:00,axn,31.54
2023-12-18T05:10:00,axn,32.40
2023-12-18T05:11:00,axn,30.91
2023-12-18T05:12:00,axn,30.67
2023-12-18T05:13:00,axn,31.17
2023-12-18T05:14:00,axn,30.81
2023-12-18T05:15:00,axn,31.50
2023-12-18T05:16:00,axn,31.65
2023-12-18T05:17:00,axn,31.56
2023-12-18T05:18:00,axn,31.28
2023-12-18T05:19:00,axn,31.20
2023-12-18T05:20:00,axn,30.76
2023-12-18T05:21:00,axn,31.90
2023-12-18T05:22:00,axn,31.49
2023-12-18T05:23:00,axn,31.16
2023-12-18T05:24:00,axn,31.86
2023-12-18T05:25:00,axn,30.96
2023-12-18T05:26:00,axn,30.65
2023-12-18T05:27:00,axn,30.78
2023-12-18T05:28:00,axn,31.32
2023-12-18T05:29:00,axn,30.40
2023-12-18T05:30:00,axn,30.17
2023-12-18T05:31:00,axn,31.20
2023-12-18T05:32:00,axn,30.85
2023-12-18T05:33:00,axn,31.65
2023-12-18T05:34:00,axn,32.27
2023-12-18T05:35:00,axn,32.02
2023-12-18T05:36:00,axn,31.80
2023-12-18T05:37:00,axn,31.30
2023-12-18T05:38:00,axn,30.94
2023-12-18T05:39:00,axn,32.32
2023-12-18T05:40:00,axn,32.04
2023-12-18T05:41:00,axn,31.15
2023-12-18T05:42:00,axn,30.98
2023-12-18T05:43:00,axn,30.73
2023-12-18T05:44:00,axn,30.63
2023-12-18T05:45:00,axn,30.69
2023-12-18T05:46:00,axn,31.38
2023-12-18T05:47:00,axn,30.73
2023-12-18T05:48:00,axn,30.62
2023-12-18T05:49:00,axn,30.07
2023-12-18T05:50:00,axn,30.27
2023-12-18T05:51:00,axn,30.60
2023-12-18T05:52:00,axn,30.65
2023-12-18T05:53:00,axn,30.61
2023-12-18T05:54:00,axn,30.78
2023-12-18T05:55:00,axn,31.04
2023-12-18T05:56:00,axn,30.56
2023-12-18T05:57:00,axn,31.32
2023-12-18T05:58:00,axn,31.04
2023-12-18T05:59:00,axn,30.14
2023-12-18T06:00:00,axn,29.88
2023-12-18T06:01:00,axn,29.88
2023-12-18T06:02:00,axn,29.92
2023-12-18T06:03:00,axn,30.16
2023-12-18T06:04:00,axn,30.07
2023-12-18T06:05:00,axn,30.21
2023-12-18T06:06:00,axn,30.21
2023-12-18T06:07:00,axn,30.41
2023-12-18T06:08:00,axn,30.18
2023-12-18T06:09:00,axn,29.92
2023-12-18T06:10:00,axn,29.99
2023-12-18T06:11:00,axn,30.44
2023-12-18T06:12:00,axn,30.26
2023-12-18T06:13:00,axn,29.60
2023-12-18T06:14:00,axn,29.44
2023-12-18T06:15:00,axn,29.62
2023-12-18T06:16:00,axn,29.22
2023-12-18T06:17:00,axn,29.71
2023-12-18T06:18:00,axn,29.14
2023-12-18T06:19:00,axn,29.51
2023-12-18T06:20:00,axn,29.48
2023-12-18T06:21:00,axn,33.39
2023-12-18T06:22:00,axn,33.52
2023-12-18T06:23:00,axn,33.35
2023-12-18T06:24:00,axn,28.72
2023-12-18T06:25:00,axn,28.48
2023-12-18T06:26:00,axn,28.33
2023-12-18T06:27:00,axn,28.77
2023-12-18T06:28:00,axn,28.53
2023-12-18T06:29:00,axn,28.55
2023-12-18T06:30:00,axn,28.53
2023-12-18T06:31:00,axn,28.88
2023-12-18T06:32:00,axn,28.60
2023-12-18T06:33:00,axn,28.50
2023-12-18T06:34:00,axn,29.01
2023-12-18T06:35:00,axn,29.07
2023-12-18T06:36:00,axn,28.70
2023-12-18T06:37:00,axn,29.10
2023-12-18T06:38:00,axn,29.20
2023-12-18T06:39:00,axn,29.57
2023-12-18T06:40:00,axn,29.76
2023-12-18T06:41:00,axn,29.52
2023-12-18T06:42:00,axn,29.23
2023-12-18T06:43:00,axn,29.08
2023-12-18T06:44:00,axn,29.11
2023-12-18T06:45:00,axn,29.69
2023-12-18T06:46:00,axn,29.49
2023-12-18T06:47:00,axn,29.65
2023-12-18T06:48:00,axn,32.38
2023-12-18T06:49:00,axn,32.22
2023-12-18T06:50:00,axn,29.59
2023-12-18T06:51:00,axn,29.96
2023-12-18T06:52:00,axn,29.90
2023-12-18T06:53:00,axn,29.38
2023-12-18T06:54:00,axn,28.37
2023-12-18T06:55:00,axn,28.77
2023-12-18T06:56:00,axn,29.13
2023-12-18T06:57:00,axn,29.44
2023-12-18T06:58:00,axn,29.42
2023-12-18T06:59:00,axn,28.91
2023-12-18T07:00:00,axn,28.17
2023-12-18T07:01:00,axn,31.00
2023-12-18T07:02:00,axn,32.29
2023-12-18T07:03:00,axn,31.24
2023-12-18T07:04:00,axn,29.72
2023-12-18T07:05:00,axn,29.36
2023-12-18T07:06:00,axn,29.92
2023-12-18T07:07:00,axn,29.96
2023-12-18T07:08:00,axn,30.27
2023-12-18T07:09:00,axn,29.93
2023-12-18T07:10:00,axn,29.77
2023-12-18T07:11:00,axn,29.56
2023-12-18T07:12:00,axn,29.66
2023-12-18T07:13:00,axn,29.83
2023-12-18T07:14:00,axn,30.01
2023-12-18T07:15:00,axn,29.68
2023-12-18T07:16:00,axn,29.76
2023-12-18T07:17:00,axn,29.55
2023-12-18T07:18:00,axn,29.56
2023-12-18T07:19:00,axn,30.13
2023-12-18T07:20:00,axn,29.75
2023-12-18T07:21:00,axn,29.79
2023-12-18T07:22:00,axn,30.07
2023-12-18T07:23:00,axn,29.64
2023-12-18T07:24:00,axn,30.53
2023-12-18T07:25:00,axn,30.44
2023-12-18T07:26:00,axn,29.79
2023-12-18T07:27:00,axn,30.32
2023-12-18T07:28:00,axn,30.24
2023-12-18T07:29:00,axn,29.95
2023-12-18T07:30:00,axn,30.30
2023-12-18T07:31:00,axn,29.95
2023-12-18T07:32:00,axn,44.31
2023-12-18T07:33:00,axn,44.32
2023-12-18T07:34:00,axn,44.00
2023-12-18T07:35:00,axn,44.26
2023-12-18T07:36:00,axn,30.09
2023-12-18T07:37:00,axn,45.67
2023-12-18T07:38:00,axn,29.94
2023-12-18T07:39:00,axn,30.08
2023-12-18T07:40:00,axn,29.64
2023-12-18T07:41:00,axn,29.60
2023-12-18T07:42:00,axn,29.42
2023-12-18T07:43:00,axn,29.38
2023-12-18T07:44:00,axn,29.31
2023-12-18T07:45:00,axn,29.39
2023-12-18T07:46:00,axn,29.48
2023-12-18T07:47:00,axn,29.61
2023-12-18T07:48:00,axn,29.32
2023-12-18T07:49:00,axn,39.53
2023-12-18T07:50:00,axn,40.00
2023-12-18T07:51:00,axn,39.74
2023-12-18T07:52:00,axn,39.31
2023-12-18T07:53:00,axn,29.63
2023-12-18T07:54:00,axn,29.70
2023-12-18T07:55:00,axn,29.62
2023-12-18T07:56:00,axn,29.84
2023-12-18T07:57:00,axn,30.11
2023-12-18T07:58:00,axn,30.46
2023-12-18T07:59:00,axn,30.56
2023-12-18T08:00:00,axn,30.48
2023-12-18T08:01:00,axn,37.67
2023-12-18T08:02:00,axn,36.03
2023-12-18T08:03:00,axn,36.42
2023-12-18T08:04:00,axn,36.78
2023-12-18T08:05:00,axn,36.85
2023-12-18T08:06:00,axn,37.08
2023-12-18T08:07:00,axn,37.28
2023-12-18T08:08:00,axn,37.40
2023-12-18T08:09:00,axn,37.95
2023-12-18T08:10:00,axn,37.93
2023-12-18T08:11:00,axn,37.86
2023-12-18T08:12:00,axn,38.06
2023-12-18T08:13:00,axn,38.48
2023-12-18T08:14:00,axn,38.27
2023-12-18T08:15:00,axn,38.87
2023-12-18T08:16:00,axn,38.32
2023-12-18T08:17:00,axn,38.84
2023-12-18T08:18:00,axn,38.63
2023-12-18T08:19:00,axn,38.98
2023-12-18T08:20:00,axn,38.95
2023-12-18T08:21:00,axn,38.92
2023-12-18T08:22:00,axn,39.21
2023-12-18T08:23:00,axn,39.83
2023-12-18T08:24:00,axn,39.44
2023-12-18T08:25:00,axn,38.82
2023-12-18T08:26:00,axn,38.85
2023-12-18T08:27:00,axn,38.83
2023-12-18T08:28:00,axn,38.74
2023-12-18T08:29:00,axn,39.13
2023-12-18T08:30:00,axn,39.82
2023-12-18T08:31:00,axn,40.12
2023-12-18T08:32:00,axn,40.46
2023-12-18T08:33:00,axn,40.22
2023-12-18T08:34:00,axn,39.07
2023-12-18T08:35:00,axn,38.60
2023-12-18T08:36:00,axn,39.07
2023-12-18T08:37:00,axn,38.58
2023-12-18T08:38:00,axn,38.65
2023-12-18T08:39:00,axn,38.60
2023-12-18T08:40:00,axn,38.59
2023-12-18T08:41:00,axn,39.09
2023-12-18T08:42:00,axn,38.82
2023-12-18T08:43:00,axn,38.70
2023-12-18T08:44:00,axn,39.23
2023-12-18T08:45:00,axn,39.19
2023-12-18T08:46:00,axn,38.86
2023-12-18T08:47:00,axn,38.98
2023-12-18T08:48:00,axn,39.55
2023-12-18T08:49:00,axn,39.62
2023-12-18T08:50:00,axn,45.49
2023-12-18T08:51:00,axn,44.87
2023-12-18T08:52:00,axn,44.73
2023-12-18T08:53:00,axn,45.03
2023-12-18T08:54:00,axn,39.85
2023-12-18T08:55:00,axn,40.02
2023-12-18T08:56:00,axn,40.19
2023-12-18T08:57:00,axn,40.20
2023-12-18T08:58:00,axn,40.03
2023-12-18T08:59:00,axn,42.60
2023-12-18T09:00:00,axn,42.79
2023-12-18T09:01:00,axn,39.75
2023-12-18T09:02:00,axn,39.34
2023-12-18T09:03:00,axn,56.02
2023-12-18T09:04:00,axn,38.79
2023-12-18T09:05:00,axn,55.02
2023-12-18T09:06:00,axn,38.43
2023-12-18T09:07:00,axn,38.53
2023-12-18T09:08:00,axn,38.83
2023-12-18T09:09:00,axn,38.99
2023-12-18T09:10:00,axn,39.29
2023-12-18T09:11:00,axn,39.41
2023-12-18T09:12:00,axn,39.39
2023-12-18T09:13:00,axn,39.23
2023-12-18T09:14:00,axn,39.34
2023-12-18T09:15:00,axn,41.11
2023-12-18T09:16:00,axn,39.29
2023-12-18T09:17:00,axn,39.57
2023-12-18T09:18:00,axn,40.17
2023-12-18T09:19:00,axn,40.15
2023-12-18T09:20:00,axn,39.84
2023-12-18T09:21:00,axn,39.73
2023-12-18T09:22:00,axn,40.12
2023-12-18T09:23:00,axn,40.29
2023-12-18T09:24:00,axn,38.79
2023-12-18T09:25:00,axn,38.74
2023-12-18T09:26:00,axn,38.63
2023-12-18T09:27:00,axn,38.41
2023-12-18T09:28:00,axn,38.42
2023-12-18T09:29:00,axn,38.86
2023-12-18T09:30:00,axn,38.36
2023-12-18T09:31:00,axn,38.20
2023-12-18T09:32:00,axn,38.88
2023-12-18T09:33:00,axn,39.09
2023-12-18T09:34:00,axn,39.00
2023-12-18T09:35:00,axn,39.40
2023-12-18T09:36:00,axn,39.48
2023-12-18T09:37:00,axn,39.60
2023-12-18T09:38:00,axn,39.76
2023-12-18T09:39:00,axn,39.61
2023-12-18T09:40:00,axn,39.78
2023-12-18T09:41:00,axn,39.53
2023-12-18T09:42:00,axn,39.96
2023-12-18T09:43:00,axn,40.07
2023-12-18T09:44:00,axn,39.95
2023-12-18T09:45:00,axn,39.69
2023-12-18T09:46:00,axn,39.46
2023-12-18T09:47:00,axn,39.49
2023-12-18T09:48:00,axn,39.35
2023-12-18T09:49:00,axn,39.10
2023-12-18T09:50:00,axn,39.15
2023-12-18T09:51:00,axn,39.23
2023-12-18T09:52:00,axn,39.19
2023-12-18T09:53:00,axn,39.10
2023-12-18T09:54:00,axn,38.76
2023-12-18T09:55:00,axn,38.78
2023-12-18T09:56:00,axn,39.09
2023-12-18T09:57:00,axn,39.00
2023-12-18T09:58:00,axn,39.73
2023-12-18T09:59:00,axn,39.20
2023-12-18T10:00:00,axn,39.02
2023-12-18T10:01:00,axn,38.98
2023-12-18T10:02:00,axn,38.86
2023-12-18T10:03:00,axn,38.83
2023-12-18T10:04:00,axn,38.66
2023-12-18T10:05:00,axn,39.31
2023-12-18T10:06:00,axn,38.91
2023-12-18T10:07:00,axn,38.51
2023-12-18T10:08:00,axn,38.84
2023-12-18T10:09:00,axn,38.58
2023-12-18T10:10:00,axn,38.83
2023-12-18T10:11:00,axn,39.08
2023-12-18T10:12:00,axn,39.03
2023-12-18T10:13:00,axn,38.84
2023-12-18T10:14:00,axn,38.64
2023-12-18T10:15:00,axn,39.05
2023-12-18T10:16:00,axn,38.79
2023-12-18T10:17:00,axn,39.51
2023-12-18T10:18:00,axn,39.04
2023-12-18T10:19:00,axn,39.14
2023-12-18T10:20:00,axn,39.38
2023-12-18T10:21:00,axn,39.10
2023-12-18T10:22:00,axn,39.88
2023-12-18T10:23:00,axn,39.43
2023-12-18T10:24:00,axn,38.77
2023-12-18T10:25:00,axn,38.26
2023-12-18T10:26:00,axn,38.52
2023-12-18T10:27:00,axn,38.43
2023-12-18T10:28:00,axn,37.90
2023-12-18T10:29:00,axn,38.48
2023-12-18T10:30:00,axn,43.72
2023-12-18T10:31:00,axn,38.02
2023-12-18T10:32:00,axn,38.27
2023-12-18T10:33:00,axn,37.83
2023-12-18T10:34:00,axn,52.02
2023-12-18T10:35:00,axn,51.88
2023-12-18T10:36:00,axn,37.94
2023-12-18T10:37:00,axn,37.64
2023-12-18T10:38:00,axn,51.64
2023-12-18T10:39:00,axn,37.51
2023-12-18T10:40:00,axn,51.22
2023-12-18T10:41:00,axn,54.08
2023-12-18T10:42:00,axn,37.57
2023-12-18T10:43:00,axn,37.16
2023-12-18T10:44:00,axn,37.17
2023-12-18T10:45:00,axn,37.32
2023-12-18T10:46:00,axn,37.64
2023-12-18T10:47:00,axn,37.52
2023-12-18T10:48:00,axn,37.21
2023-12-18T10:49:00,axn,37.57
2023-12-18T10:50:00,axn,37.60
2023-12-18T10:51:00,axn,37.72
2023-12-18T10:52:00,axn,37.71
2023-12-18T10:53:00,axn,37.81
2023-12-18T10:54:00,axn,37.77
2023-12-18T10:55:00,axn,37.50
2023-12-18T10:56:00,axn,37.37
2023-12-18T10:57:00,axn,37.09
2023-12-18T10:58:00,axn,37.07
2023-12-18T10:59:00,axn,37.35
2023-12-18T11:00:00,axn,37.31
2023-12-18T11:01:00,axn,37.61
2023-12-18T11:02:00,axn,37.82
2023-12-18T11:03:00,axn,37.88
2023-12-18T11:04:00,axn,37.85
2023-12-18T11:05:00,axn,37.84
2023-12-18T11:06:00,axn,38.75
2023-12-18T11:07:00,axn,38.81
2023-12-18T11:08:00,axn,38.61
2023-12-18T11:09:00,axn,38.24
2023-12-18T11:10:00,axn,37.94
2023-12-18T11:11:00,axn,38.07
2023-12-18T11:12:00,axn,38.00
2023-12-18T11:13:00,axn,37.89
2023-12-18T11:14:00,axn,37.90
2023-12-18T11:15:00,axn,38.11
2023-12-18T11:16:00,axn,37.76
2023-12-18T11:17:00,axn,38.63
2023-12-18T11:18:00,axn,38.75
2023-12-18T11:19:00,axn,38.58
2023-12-18T11:20:00,axn,37.90
2023-12-18T11:21:00,axn,38.22
2023-12-18T11:22:00,axn,38.11
2023-12-18T11:23:00,axn,38.57
2023-12-18T11:24:00,axn,38.45
2023-12-18T11:25:00,axn,38.08
2023-12-18T11:26:00,axn,37.95
2023-12-18T11:27:00,axn,37.98
2023-12-18T11:28:00,axn,38.41
2023-12-18T11:29:00,axn,41.04
2023-12-18T11:30:00,axn,41.33
2023-12-18T11:31:00,axn,38.57
2023-12-18T11:32:00,axn,38.55
2023-12-18T11:33:00,axn,38.88
2023-12-18T11:34:00,axn,39.46
2023-12-18T11:35:00,axn,38.77
2023-12-18T11:36:00,axn,38.64
2023-12-18T11:37:00,axn,48.80
2023-12-18T11:38:00,axn,48.57
2023-12-18T11:39:00,axn,48.71
2023-12-18T11:40:00,axn,48.79
2023-12-18T11:41:00,axn,39.40
2023-12-18T11:42:00,axn,39.28
2023-12-18T11:43:00,axn,38.64
2023-12-18T11:44:00,axn,38.62
2023-12-18T11:45:00,axn,38.64
2023-12-18T11:46:00,axn,39.01
2023-12-18T11:47:00,axn,39.48
2023-12-18T11:48:00,axn,53.63
2023-12-18T11:49:00,axn,38.83
2023-12-18T11:50:00,axn,53.52
2023-12-18T11:51:00,axn,37.63
2023-12-18T11:52:00,axn,37.44
2023-12-18T11:53:00,axn,37.52
2023-12-18T11:54:00,axn,38.16
2023-12-18T11:55:00,axn,53.80
2023-12-18T11:56:00,axn,37.22
2023-12-18T11:57:00,axn,37.45
2023-12-18T11:58:00,axn,40.86
2023-12-18T11:59:00,axn,42.56
2023-12-18T12:00:00,axn,41.93
2023-12-18T12:01:00,axn,42.40
2023-12-18T12:02:00,axn,37.49
2023-12-18T12:03:00,axn,37.77
2023-12-18T12:04:00,axn,37.73
2023-12-18T12:05:00,axn,38.06
2023-12-18T12:06:00,axn,39.50
2023-12-18T12:07:00,axn,40.44
2023-12-18T12:08:00,axn,41.69
2023-12-18T12:09:00,axn,42.55
2023-12-18T12:10:00,axn,42.18
2023-12-18T12:11:00,axn,42.80
2023-12-18T12:12:00,axn,43.74
2023-12-18T12:13:00,axn,45.26
2023-12-18T12:14:00,axn,43.81
2023-12-18T12:15:00,axn,43.67
2023-12-18T12:16:00,axn,43.33
2023-12-18T12:17:00,axn,44.47
2023-12-18T12:18:00,axn,46.08
2023-12-18T12:19:00,axn,44.54
2023-12-18T12:20:00,axn,45.64
2023-12-18T12:21:00,axn,45.08
2023-12-18T12:22:00,axn,44.76
2023-12-18T12:23:00,axn,44.62
2023-12-18T12:24:00,axn,43.17
2023-12-18T12:25:00,axn,44.01
2023-12-18T12:26:00,axn,42.11
2023-12-18T12:27:00,axn,43.92
2023-12-18T12:28:00,axn,44.55
2023-12-18T12:29:00,axn,44.40
2023-12-18T12:30:00,axn,44.92
2023-12-18T12:31:00,axn,44.59
2023-12-18T12:32:00,axn,44.36
2023-12-18T12:33:00,axn,44.21
2023-12-18T12:34:00,axn,42.72
2023-12-18T12:35:00,axn,43.41
2023-12-18T12:36:00,axn,42.57
2023-12-18T12:37:00,axn,42.26
2023-12-18T12:38:00,axn,41.85
2023-12-18T12:39:00,axn,42.92
2023-12-18T12:40:00,axn,41.88
2023-12-18T12:41:00,axn,43.18
2023-12-18T12:42:00,axn,43.42
2023-12-18T12:43:00,axn,42.73
2023-12-18T12:44:00,axn,42.11
2023-12-18T12:45:00,axn,41.05
2023-12-18T12:46:00,axn,42.15
2023-12-18T12:47:00,axn,43.22
2023-12-18T12:48:00,axn,43.31
2023-12-18T12:49:00,axn,43.03
2023-12-18T12:50:00,axn,43.86
2023-12-18T12:51:00,axn,44.23
2023-12-18T12:52:00,axn,43.76
2023-12-18T12:53:00,axn,44.54
2023-12-18T12:54:00,axn,45.19
2023-12-18T12:55:00,axn,43.67
2023-12-18T12:56:00,axn,45.77
2023-12-18T12:57:00,axn,43.85
2023-12-18T12:58:00,axn,42.64
2023-12-18T12:59:00,axn,44.73
2023-12-18T13:00:00,axn,43.71
2023-12-18T13:01:00,axn,43.71
2023-12-18T13:02:00,axn,41.88
2023-12-18T13:03:00,axn,45.46
2023-12-18T13:04:00,axn,45.52
2023-12-18T13:05:00,axn,46.22
2023-12-18T13:06:00,axn,45.91
2023-12-18T13:07:00,axn,45.93
2023-12-18T13:08:00,axn,46.56
2023-12-18T13:09:00,axn,45.16
2023-12-18T13:10:00,axn,44.99
2023-12-18T13:11:00,axn,46.58
2023-12-18T13:12:00,axn,47.37
2023-12-18T13:13:00,axn,46.72
2023-12-18T13:14:00,axn,45.12
2023-12-18T13:15:00,axn,45.75
2023-12-18T13:16:00,axn,44.82
2023-12-18T13:17:00,axn,45.90
2023-12-18T13:18:00,axn,45.98